Погода в Зуевке

Россия / Самарская область     52°44′07″N   51°03′38″E
темп.,
°C
ветер,
м/с
пор.,
м/с
влажн.,
%
обл.,
%
осадки,
мм/ч
давл.,
гПа
погр.,
м
6 марта, сб
сб601:00−11з128550 0.0 101221
04:00−11юз238826 0.0 101421
07:00−11юз349669 0.0 101532
10:00−9з369153 0.0 1015165
13:00−7з249152 0.0 1016217
16:00−6ссз129476 0.0 1015169
19:00−8св1294100 0.0 101521
22:00−10св2393100 0.0 101421
7 марта, вс
вс701:00−12св2387100 0.0 101329
04:00−13ссв2287100 0.0 101320
07:00−17ссв228867 0.0 101220
10:00−13сз228633 0.0 101355
13:00−10зюз34840 0.0 1013230
16:00−9юз47930 0.0 1012280
19:00−12ююз5109663 0.0 1012188
22:00−9ююз7139079 0.0 1011416
8 марта, пн
пн801:00−7ююз101793100 0.3 1006706
04:00−6ююз111992100 1.1 1003950
07:00−4юз101794100 1.2 1002870
10:00−3юз81392100 1.8 1003891
13:00−1зюз71184100 0.6 10041266
16:00−2юз81480100 0.8 1004928
19:00−3ююз71594100 0.2 1003759
22:00−2з71191100 2.0 1004706
9 марта, вт
вт901:00−8з4788100 0.1 1005164
04:00−13з469284 0.1 100783
07:00−15зюз46940 0.0 100890
10:00−13зюз47930 0.0 1010225
13:00−11зюз469240 0.0 1011295
16:00−11з369360 0.0 1012303
19:00−14зюз349643 0.0 101244
22:00−15зсз339767 0.0 101428
10 марта, ср
ср1001:00−16сз2298100 0.1 101420
04:00−18ссз2396100 0.1 101520
07:00−20сз2398100 0.0 101521
10:00−17сз3495100 0.0 1016249
13:00−16сз3592100 0.0 1017362
16:00−15зсз3691100 0.1 1017605
19:00−18ссз3598100 0.1 101889
22:00−22сз469798 0.1 1020106